Regional Weather Roundup
Issued by NWS Nashville, TN

Home | Current Version | Previous Version | Text Only | Print | Product List | Glossary On
Versions: 1 2 3 4 5 6 7 8 9 10 11 12 13 14 15 16 17 18 19 20 21 22 23 24 25 26 27 28 29 30 31 32 33 34 35 36 37 38 39 40 41 42 43 44 45 46 47 48 49 50
000
ASUS44 KOHX 221615
RWROHX
MIDDLE TENNESSEE HOURLY WEATHER ROUNDUP
NATIONAL WEATHER SERVICE NASHVILLE TN
1000 AM CST SAT NOV 22 2014

NOTE: "FAIR" INDICATES FEW OR NO CLOUDS BELOW 12,000 FEET WITH
NO SIGNIFICANT WEATHER AND/OR OBSTRUCTIONS TO VISIBILITY.

* THESE REPORTS ARE NOT UNDER NWS QUALITY CONTROL AND MAY NOT
  REPORT WEATHER SUCH AS PRECIPITATION AND FOG.


TNZ005>011-023>034-057-059-062>066-078-080-221700
...NORTHERN MIDDLE TENNESSEE...

CITY           SKY/WX    TMP DP  RH WIND       PRES   REMARKS
CLARKSVILLE    CLOUDY    58  36  43 S17       30.29F
CROSSVILLE     SUNNY     51  28  41 S9G21     30.38F
GALLATIN         N/A     54  34  46 S6        30.34F
DICKSON        PTSUNNY   54  34  47 S7        30.29F
LEBANON        PTSUNNY   55  32  41 S8        30.32F
LIVINGSTON     MOSUNNY   65  28  24 SW10      30.35F
NASHVILLE      PTSUNNY   56  31  38 S14       30.32F
PORTLAND         N/A     52  30  43 S13       30.31F
SMYRNA         PTSUNNY   57  33  40 S13G18    30.34F
SPARTA         SUNNY     57  34  41 S9        30.35F
$$
TNZ056-058-060-061-075>077-079-093>097-221700
...SOUTHERN MIDDLE TENNESSEE...

CITY           SKY/WX    TMP DP  RH WIND       PRES   REMARKS
COLUMBIA       MOSUNNY   55  34  44 S9        30.30F
LEWISBURG      PTSUNNY   57  33  40 S10       30.33F
MCMINNVILLE    SUNNY     59  34  38 S5        30.35F
SHELBYVILLE    SUNNY     59  36  41 S12       30.35F
TULLAHOMA      SUNNY     55  30  38 S13       30.35F
WINCHESTER     SUNNY     54  30  40 SE15      30.36F
$$


...KEY TO REMARKS...
VSB - VISIBILITY IN MILES
WCI - WIND CHILL INDEX
HX  - HEAT INDEX



USA.gov is the U.S. government's official web portal to all federal, state and local government web resources and services.